SCP
3 3 3 3 3 2 2 2 1 1 0 0 0 0 0 0 0 1 1 1 1 1 1 1 1 1 1 1 1 1 1 1 1 1 1 1 1 1
3 3 3 3 3 2 2 2 1 1 1 0 0 0 0 0 0 1 1 1 1 1 1 1 1 1 1 1 1 1 1 1 1 1 1 1 1 1
2 3 3 3 3 2 2 2 1 1 1 1 1 0 0 0 0 0 0 1 1 1 1 0 0 1 1 0 0 0 0 0 0 0 1 1 1 1
2 3 4 3 2 2 2 1 1 1 1 1 1 0 0 0 0 0 0 1 1 1 1 0 0 0 0 0 0 0 0 0 0 0 0 0 1 1
3 3 3 3 2 1 1 1 1 1 1 1 1 1 0 0 0 0 0 1 1 1 1 1 0 0 0 0 0 0 0 0 0 0 0 0 0 0
2 2 3 2 2 1 1 1 1 1 1 1 1 1 1 0 0 0 0 0 0 1 1 1 1 1 0 0 0 0 0 0 0 0 0 0 0 0
2 2 2 2 1 1 1 1 1 1 1 1 1 1 1 1 0 0 0 0 0 0 1 1 1 1 1 0 0 0 0 0 0 0 0 0 0 0
3 2 2 1 1 1 1 1 1 1 1 1 1 1 1 1 0 0 0 0 0 0 0 0 1 1 1 0 0 0 0 0 0 0 0 0 0 0
3 3 2 1 1 1 0 1 1 1 1 1 1 1 1 1 1 1 0 0 0 0 0 0 0 0 0 0 0 0 0 0 0 0 0 0 0 0
4 3 2 1 1 1 1 1 1 1 1 0 0 0 0 0 0 0 0 0 0 0 0 0 0 0 0 0 0 0 0 0 0 0 0 0 0 0
4 3 2 2 1 1 1 1 0 0 0 0 0 0 0 0 0 0 0 0 0 0 0 0 0 0 0 0 0 0 0 0 0 0 0 0 0 0
4 3 2 2 1 1 1 1 0 0 0 0 0 0 0 0 0 0 0 0 0 0 0 0 0 0 0 0 0 0 0 0 0 0 0 0 0 0
4 3 2 2 1 0 0 0 0 0 0 0 0 0 0 0 0 0 0 0 1 1 1 0 0 0 0 0 0 0 0 0 0 0 0 0 0 0
3 3 2 1 1 0 0 0 0 0 0 0 0 0 0 0 0 0 1 1 1 1 1 1 0 0 0 0 0 0 0 0 0 0 0 0 0 0
3 2 2 1 0 0 0 0 0 0 0 0 0 0 0 0 0 1 1 1 2 2 2 2 1 1 0 0 0 0 0 0 0 0 0 0 0 0
1 1 1 1 0 0 0 0 0 0 0 0 0 0 0 0 0 1 1 1 1 1 1 2 1 1 0 0 0 0 0 0 0 0 0 0 0 0
0 0 1 1 1 1 1 0 0 0 0 0 0 0 0 0 0 1 1 1 1 1 1 1 1 1 0 0 0 0 0 0 0 0 0 0 0 0
0 0 1 1 1 1 1 1 0 0 0 0 0 0 0 0 0 0 1 1 1 0 0 0 0 0 0 0 0 0 0 0 0 0 0 0 0 0
1 1 1 1 1 1 1 1 1 1 0 0 0 0 0 0 0 0 1 1 0 0 0 0 0 0 0 0 0 0 0 0 0 0 0 0 0 0
1 1 1 1 1 1 1 1 1 1 1 0 0 0 0 0 0 0 1 1 0 0 0 0 0 0 0 0 0 0 0 0 0 0 0 0 0 0
1 1 1 1 1 1 1 1 1 1 0 0 0 0 0 0 0 0 0 0 0 0 0 0 0 0 0 0 0 0 0 0 0 0 0 0 0 0
1 1 1 1 1 1 1 1 1 0 0 0 0 0 0 0 0 0 0 0 0 0 0 0 0 0 0 0 0 0 0 0 0 0 0 0 0 0
1 1 1 1 1 1 1 1 1 0 0 0 0 0 0 0 0 0 0 0 0 0 0 0 0 0 0 0 0 0 0 0 0 0 0 0 0 0
Wind_Speed
1 2 2 2 2 2 2 3 3 2 3 3 2 2 2 2 4 3 3 6 7 8 8 8 8 8 7 7 7 7 7 7 7 7 7 8 8 9
1 1 1 2 2 1 2 2 2 3 3 3 3 2 2 2 4 3 4 7 7 7 8 8 9 9 8 8 8 7 7 7 7 7 7 7 7 8
1 1 2 2 1 1 1 1 2 2 3 3 2 2 1 2 2 2 3 3 3 6 6 7 8 8 8 8 8 7 7 7 7 7 7 7 7 8
2 2 3 2 2 2 1 2 2 3 3 3 2 2 3 3 2 2 2 2 3 5 6 6 7 7 8 8 7 7 7 7 7 7 8 8 8 8
2 2 2 1 2 2 2 2 2 2 2 2 3 2 2 2 1 2 2 2 3 3 4 6 6 7 7 8 8 7 7 7 7 7 7 7 7 7
2 2 2 2 3 3 2 3 2 2 1 2 2 2 2 2 1 1 2 2 3 3 3 3 5 6 6 7 7 8 8 8 7 7 7 7 7 7
2 2 3 3 4 3 2 3 2 2 2 2 2 2 2 2 2 2 2 2 3 2 2 3 2 2 3 5 7 8 8 8 8 8 7 8 7 7
2 3 3 3 4 4 4 3 3 3 3 3 3 3 4 3 2 2 2 1 3 2 1 3 2 3 3 3 6 8 8 8 8 8 8 8 8 7
2 2 2 2 2 2 3 4 4 5 4 4 4 4 4 4 3 3 3 3 4 3 1 3 2 3 4 4 7 7 7 8 7 7 8 8 7 7
3 2 2 2 2 1 1 2 3 4 4 3 4 5 5 4 4 4 4 3 3 3 2 3 3 3 4 3 5 7 7 7 7 7 7 7 7 7
2 2 2 2 4 2 1 2 3 4 5 5 5 5 5 5 3 1 1 1 3 4 2 2 3 2 3 3 4 5 6 6 6 6 6 6 6 6
2 3 4 4 4 3 2 2 3 4 4 4 4 4 3 4 4 4 4 3 2 3 3 2 2 1 2 3 2 2 3 4 4 5 5 5 4 3
2 3 3 5 5 5 4 4 6 5 3 3 3 3 3 3 3 3 3 4 4 4 4 2 2 2 2 2 2 2 2 2 1 2 3 4 4 5
3 3 4 5 5 5 4 4 5 4 2 2 2 3 3 3 3 3 4 4 5 6 5 3 3 3 3 2 2 1 1 1 2 2 2 2 3 5
3 5 6 5 4 3 4 5 3 1 1 2 3 4 4 4 3 2 3 3 4 4 4 3 3 2 3 3 3 2 1 2 2 2 2 2 2 2
3 4 5 3 2 3 3 3 2 2 2 3 4 4 3 2 2 2 3 2 2 3 3 3 3 3 3 3 3 3 2 2 2 2 2 2 2 2
2 1 1 2 2 2 2 2 2 2 2 3 3 3 3 3 3 2 2 2 3 3 3 2 2 2 3 3 3 3 3 2 3 3 2 2 2 3
1 1 2 2 2 2 2 3 3 3 3 3 3 3 3 3 3 3 2 3 4 4 3 3 1 1 1 2 4 4 3 3 2 3 3 3 3 3
1 1 2 3 3 3 3 3 3 4 3 3 3 4 4 3 3 3 3 3 3 3 3 3 3 3 3 3 3 3 4 3 2 2 2 3 3 3
1 2 2 3 2 3 3 3 3 3 3 3 3 3 3 3 4 4 3 4 4 3 3 3 3 4 5 4 3 2 3 4 3 3 2 1 1 0
2 2 2 2 2 2 3 3 3 3 3 3 3 4 3 3 4 4 4 5 4 3 4 4 4 4 2 1 1 1 1 2 4 3 3 2 1 1
2 2 2 2 2 2 2 2 2 2 3 3 4 4 4 3 4 5 4 3 3 3 4 3 2 1 2 2 3 2 1 1 0 2 2 4 4 4
2 2 2 2 2 2 2 2 3 3 3 3 3 3 4 3 3 3 3 3 3 3 2 2 1 1 2 3 2 2 1 1 0 1 1 2 2 3
Wind_Direction
240 227 226 247 230 220 200 179 178 225 273 271 275 279 265 239 232 225 225 232 235 234 229 230 235 240 240 240 241 242 240 238 241 241 237 236 236 232
244 244 255 260 256 247 222 203 191 193 238 255 244 263 268 261 244 235 232 238 239 237 231 231 234 236 238 238 239 238 234 234 236 239 239 239 240 238
290 271 263 256 257 266 241 209 208 185 222 267 262 266 256 271 276 264 250 239 244 245 243 239 238 238 240 241 240 238 235 234 235 236 235 237 242 239
282 287 279 274 267 255 232 229 226 204 199 245 267 263 256 250 245 258 269 265 258 262 256 247 243 242 239 237 235 236 235 233 233 233 232 232 235 237
247 246 262 262 274 268 250 242 243 234 203 216 255 258 262 269 268 276 279 279 272 271 268 257 253 249 241 235 232 234 236 235 233 231 230 231 231 234
253 244 251 238 248 256 254 241 234 232 221 225 248 261 258 260 240 266 286 276 274 276 279 271 263 255 247 236 233 234 234 233 231 230 228 227 227 231
282 268 262 267 264 251 252 235 217 221 228 236 251 264 261 251 246 242 252 275 276 261 274 279 276 273 260 247 238 237 237 236 232 228 227 225 224 225
275 283 283 288 288 282 279 258 226 218 224 223 236 237 248 241 239 235 228 254 281 264 230 272 257 262 261 247 245 238 234 234 231 228 226 225 225 225
244 261 286 302 305 296 298 300 269 253 230 209 219 233 236 234 227 236 228 224 245 250 226 267 258 257 260 258 246 243 239 236 233 230 229 227 224 222
244 241 250 274 281 268 289 307 285 270 254 233 221 234 236 231 219 222 226 241 263 262 202 244 258 253 263 261 251 242 244 238 234 229 224 225 225 222
256 253 238 257 277 281 285 286 294 292 285 275 260 255 255 253 236 197 217 225 269 271 229 217 253 264 267 262 258 248 247 244 236 229 221 220 222 218
275 268 261 259 268 266 239 245 273 280 292 300 297 297 282 272 256 215 203 212 240 265 245 206 237 243 283 273 250 250 249 249 235 225 220 217 211 198
264 273 273 276 277 277 262 238 247 260 268 266 273 280 284 275 264 244 215 202 217 243 239 201 219 210 221 271 281 240 218 225 220 225 224 221 205 188
246 258 269 282 280 281 275 266 268 270 261 265 271 272 268 264 260 251 239 233 227 235 242 208 210 208 208 237 262 263 234 221 203 206 208 213 217 213
257 268 275 284 284 274 277 281 283 261 252 260 263 265 259 258 259 263 265 261 262 256 245 218 207 211 203 217 232 231 237 240 213 205 199 196 204 199
289 296 298 295 297 290 297 297 277 252 248 252 261 266 269 266 257 248 253 259 265 278 273 238 214 200 208 216 215 232 216 209 208 210 201 210 210 206
278 308 318 322 316 312 313 309 299 302 285 272 268 275 275 270 268 258 236 233 236 249 264 265 241 225 211 200 218 231 223 222 212 199 187 210 224 213
175 250 266 264 266 271 277 288 285 283 277 273 271 270 269 267 272 271 245 234 241 245 244 241 226 261 289 269 221 216 218 220 221 201 185 199 230 224
146 252 261 262 263 263 264 265 267 270 268 267 267 270 272 271 270 266 258 250 250 248 242 225 210 208 225 254 270 216 206 216 202 198 203 198 212 222
252 259 270 274 270 270 269 266 269 279 277 272 271 272 271 267 266 261 250 245 247 247 249 238 222 215 218 228 237 255 217 199 189 195 203 194 211 248
264 266 264 267 273 272 272 281 285 284 289 286 280 278 276 272 268 265 257 250 240 236 243 247 244 230 221 171 205 270 263 205 183 180 175 163 173 180
252 260 264 263 271 283 288 293 300 303 308 299 292 286 281 274 269 265 261 251 242 237 243 256 266 210 193 200 214 221 243 337 103 160 168 171 173 188
244 245 252 259 269 289 296 297 297 299 299 299 301 302 303 296 283 269 261 249 243 238 242 251 259 228 208 200 206 200 182 205 331 59 360 328 217 207